Time,TemperatureF,DewpointF,PressureIn,WindDirection,WindDirectionDegrees,WindSpeedMPH,WindSpeedGustMPH,Humidity,HourlyPrecipIn,Conditions,Clouds,dailyrainin,SoftwareType,DateUTC
2013-05-18 00:01:00,50.8,49.0,30.30,WSW,247,12.6,22.2,92,0.00,,,0.00,Rainwise IP-100,2013-05-18 07:01:00,
2013-05-18 00:06:00,50.7,48.0,30.30,SSW,202,6.8,17.7,92,0.00,,,0.00,Rainwise IP-100,2013-05-18 07:06:00,
2013-05-18 00:11:00,50.7,48.0,30.30,WNW,292,15.9,16.3,93,0.00,,,0.00,Rainwise IP-100,2013-05-18 07:11:00,
2013-05-18 00:16:00,50.7,48.0,30.30,WSW,247,5.6,17.5,93,0.00,,,0.00,Rainwise IP-100,2013-05-18 07:16:00,
2013-05-18 00:21:00,50.6,48.0,30.30,NNW,337,14.2,21.2,93,0.00,,,0.00,Rainwise IP-100,2013-05-18 07:21:00,
2013-05-18 00:26:00,50.6,48.0,30.30,West,270,9.8,18.7,93,0.00,,,0.00,Rainwise IP-100,2013-05-18 07:26:00,
2013-05-18 00:31:00,50.5,48.0,30.31,WSW,247,7.0,19.1,93,0.00,,,0.00,Rainwise IP-100,2013-05-18 07:31:00,
2013-05-18 00:36:00,50.4,49.0,30.30,NW,315,1.9,18.2,94,0.00,,,0.00,Rainwise IP-100,2013-05-18 07:36:00,
2013-05-18 00:41:00,50.4,49.0,30.31,West,270,11.2,21.2,94,0.00,,,0.00,Rainwise IP-100,2013-05-18 07:41:00,
2013-05-18 00:46:00,50.3,49.0,30.30,West,270,6.8,19.6,94,0.00,,,0.00,Rainwise IP-100,2013-05-18 07:46:00,
2013-05-18 00:51:00,50.3,49.0,30.30,WNW,292,14.5,17.0,94,0.00,,,0.00,Rainwise IP-100,2013-05-18 07:51:00,
2013-05-18 00:56:00,50.3,49.0,30.29,WNW,292,19.8,21.9,94,0.00,,,0.00,Rainwise IP-100,2013-05-18 07:56:00,
2013-05-18 01:01:00,50.3,49.0,30.29,WNW,292,15.6,19.8,94,0.00,,,0.00,Rainwise IP-100,2013-05-18 08:01:00,
2013-05-18 01:06:00,50.2,48.0,30.30,NW,315,14.9,17.0,94,0.00,,,0.00,Rainwise IP-100,2013-05-18 08:06:00,
2013-05-18 01:11:00,50.2,48.0,30.29,WSW,247,7.0,18.0,95,0.00,,,0.00,Rainwise IP-100,2013-05-18 08:11:00,
2013-05-18 01:16:00,50.3,49.0,30.29,WNW,292,7.7,15.6,95,0.00,,,0.00,Rainwise IP-100,2013-05-18 08:16:00,
2013-05-18 01:21:00,50.3,49.0,30.29,West,270,9.8,18.9,95,0.00,,,0.00,Rainwise IP-100,2013-05-18 08:21:00,
2013-05-18 01:26:00,50.3,49.0,30.29,WSW,247,4.0,19.6,95,0.00,,,0.00,Rainwise IP-100,2013-05-18 08:26:00,
2013-05-18 01:31:00,50.3,49.0,30.30,SSE,157,1.9,20.8,95,0.00,,,0.00,Rainwise IP-100,2013-05-18 08:31:00,
2013-05-18 01:36:00,50.3,49.0,30.30,WNW,292,2.1,14.7,95,0.00,,,0.00,Rainwise IP-100,2013-05-18 08:36:00,
2013-05-18 01:41:00,50.3,49.0,30.30,West,270,4.4,20.3,95,0.00,,,0.00,Rainwise IP-100,2013-05-18 08:41:00,
2013-05-18 01:46:00,50.3,49.0,30.30,WNW,292,15.4,21.5,95,0.00,,,0.00,Rainwise IP-100,2013-05-18 08:46:00,
2013-05-18 01:51:00,50.3,49.0,30.29,West,270,11.4,20.5,95,0.00,,,0.00,Rainwise IP-100,2013-05-18 08:51:00,
2013-05-18 01:56:00,50.3,49.0,30.29,West,270,10.0,21.0,95,0.00,,,0.00,Rainwise IP-100,2013-05-18 08:56:00,
2013-05-18 02:01:00,50.2,48.0,30.29,WNW,292,18.0,24.0,95,0.00,,,0.00,Rainwise IP-100,2013-05-18 09:01:00,
2013-05-18 02:06:00,50.2,48.0,30.29,SW,225,11.9,19.6,95,0.00,,,0.00,Rainwise IP-100,2013-05-18 09:06:00,
2013-05-18 02:11:00,50.1,48.0,30.30,WNW,292,13.5,20.1,95,0.00,,,0.00,Rainwise IP-100,2013-05-18 09:11:00,
2013-05-18 02:16:00,50.1,48.0,30.30,West,270,9.3,21.0,95,0.00,,,0.00,Rainwise IP-100,2013-05-18 09:16:00,
2013-05-18 02:21:00,50.1,48.0,30.30,WNW,292,3.3,17.5,95,0.00,,,0.00,Rainwise IP-100,2013-05-18 09:21:00,
2013-05-18 02:26:00,50.1,48.0,30.30,WNW,292,6.1,18.2,95,0.00,,,0.00,Rainwise IP-100,2013-05-18 09:26:00,
2013-05-18 02:31:00,50.1,48.0,30.30,West,270,2.8,17.5,95,0.00,,,0.00,Rainwise IP-100,2013-05-18 09:31:00,
2013-05-18 02:36:00,50.1,48.0,30.31,WSW,247,14.0,16.6,95,0.00,,,0.00,Rainwise IP-100,2013-05-18 09:36:00,
2013-05-18 02:41:00,50.1,48.0,30.30,NW,315,4.9,16.1,95,0.00,,,0.00,Rainwise IP-100,2013-05-18 09:41:00,
2013-05-18 02:46:00,50.0,48.0,30.30,West,270,6.1,19.8,95,0.00,,,0.00,Rainwise IP-100,2013-05-18 09:46:00,
2013-05-18 02:51:00,50.0,48.0,30.30,WNW,292,10.5,18.9,95,0.00,,,0.00,Rainwise IP-100,2013-05-18 09:51:00,
2013-05-18 02:56:00,50.0,48.0,30.30,WSW,247,13.5,15.9,95,0.00,,,0.00,Rainwise IP-100,2013-05-18 09:56:00,
2013-05-18 03:01:00,50.0,49.0,30.30,West,270,5.1,18.0,96,0.00,,,0.00,Rainwise IP-100,2013-05-18 10:01:00,
2013-05-18 03:06:00,50.0,49.0,30.30,West,270,9.3,18.2,96,0.00,,,0.00,Rainwise IP-100,2013-05-18 10:06:00,
2013-05-18 03:11:00,50.0,48.0,30.30,NNW,337,6.1,16.3,95,0.00,,,0.00,Rainwise IP-100,2013-05-18 10:11:00,
2013-05-18 03:16:00,50.0,48.0,30.30,WNW,292,4.9,19.6,95,0.00,,,0.00,Rainwise IP-100,2013-05-18 10:16:00,
2013-05-18 03:21:00,50.0,48.0,30.30,WNW,292,13.8,14.7,95,0.00,,,0.00,Rainwise IP-100,2013-05-18 10:21:00,
2013-05-18 03:26:00,50.0,48.0,30.31,WNW,292,8.4,14.7,95,0.00,,,0.00,Rainwise IP-100,2013-05-18 10:26:00,
2013-05-18 03:31:00,50.0,48.0,30.30,WNW,292,12.6,15.2,95,0.00,,,0.00,Rainwise IP-100,2013-05-18 10:31:00,
2013-05-18 03:36:00,50.0,48.0,30.30,WNW,292,5.1,14.2,95,0.00,,,0.00,Rainwise IP-100,2013-05-18 10:36:00,
2013-05-18 03:41:00,50.0,48.0,30.31,West,270,3.0,14.9,95,0.00,,,0.00,Rainwise IP-100,2013-05-18 10:41:00,
2013-05-18 03:46:00,49.9,48.0,30.30,WNW,292,7.9,15.6,95,0.00,,,0.00,Rainwise IP-100,2013-05-18 10:46:00,
2013-05-18 03:51:00,49.8,48.0,30.30,West,270,4.9,9.8,95,0.00,,,0.00,Rainwise IP-100,2013-05-18 10:51:00,
2013-05-18 03:56:00,49.7,48.0,30.31,West,270,7.7,11.0,95,0.00,,,0.00,Rainwise IP-100,2013-05-18 10:56:00,
2013-05-18 04:01:00,49.7,48.0,30.30,WSW,247,2.8,11.9,95,0.00,,,0.00,Rainwise IP-100,2013-05-18 11:01:00,
2013-05-18 04:06:00,49.6,49.0,30.30,WNW,292,3.7,9.8,96,0.00,,,0.00,Rainwise IP-100,2013-05-18 11:06:00,
2013-05-18 04:11:00,49.5,49.0,30.30,WNW,292,2.6,5.1,96,0.00,,,0.00,Rainwise IP-100,2013-05-18 11:11:00,
2013-05-18 04:16:00,49.4,48.0,30.30,WNW,292,3.5,5.6,96,0.00,,,0.00,Rainwise IP-100,2013-05-18 11:16:00,
2013-05-18 04:21:00,49.3,48.0,30.30,WNW,292,2.3,6.1,96,0.00,,,0.00,Rainwise IP-100,2013-05-18 11:21:00,
2013-05-18 04:26:00,49.2,48.0,30.30,WNW,292,2.1,5.8,96,0.00,,,0.00,Rainwise IP-100,2013-05-18 11:26:00,
2013-05-18 04:31:00,49.2,48.0,30.31,NW,315,1.2,4.2,96,0.00,,,0.00,Rainwise IP-100,2013-05-18 11:31:00,
2013-05-18 04:36:00,49.1,47.5,30.30,NNW,337,0.0,4.2,95,0.00,,,0.00,Rainwise IP-100,2013-05-18 11:36:00,
2013-05-18 04:41:00,48.9,47.5,30.31,NNW,337,0.0,0.0,95,0.00,,,0.00,Rainwise IP-100,2013-05-18 11:41:00,
2013-05-18 04:45:00,48.7,47.5,30.30,NNW,337,0.0,0.0,95,0.00,,,0.00,Rainwise IP-100,2013-05-18 11:45:00,
2013-05-18 04:50:00,48.5,47.5,30.30,NNW,337,0.0,0.0,95,0.00,,,0.00,Rainwise IP-100,2013-05-18 11:50:00,
2013-05-18 04:53:00,48.4,47.0,30.31,NNW,337,0.0,0.0,95,0.00,,,0.00,Rainwise IP-100,2013-05-18 11:53:00,
2013-05-18 04:58:00,48.2,47.0,30.30,NNW,337,0.0,1.4,95,0.00,,,0.00,Rainwise IP-100,2013-05-18 11:58:00,
2013-05-18 05:03:00,48.1,47.0,30.31,NNW,337,0.0,1.4,95,0.00,,,0.00,Rainwise IP-100,2013-05-18 12:03:00,
2013-05-18 05:08:00,48.0,47.5,30.31,NNW,337,1.2,0.0,96,0.00,,,0.00,Rainwise IP-100,2013-05-18 12:08:00,
2013-05-18 05:13:00,48.1,47.5,30.31,West,270,2.1,5.6,96,0.00,,,0.00,Rainwise IP-100,2013-05-18 12:13:00,
2013-05-18 05:18:00,48.3,47.5,30.31,West,270,4.2,7.0,96,0.00,,,0.00,Rainwise IP-100,2013-05-18 12:18:00,
2013-05-18 05:23:00,48.6,48.0,30.31,WNW,292,2.1,8.4,96,0.00,,,0.00,Rainwise IP-100,2013-05-18 12:23:00,
2013-05-18 05:28:00,48.8,48.0,30.31,West,270,4.7,7.2,96,0.00,,,0.00,Rainwise IP-100,2013-05-18 12:28:00,
2013-05-18 05:33:00,48.9,48.0,30.31,WNW,292,3.5,9.6,96,0.00,,,0.00,Rainwise IP-100,2013-05-18 12:33:00,
2013-05-18 05:38:00,48.9,48.0,30.32,WNW,292,2.6,8.9,96,0.00,,,0.00,Rainwise IP-100,2013-05-18 12:38:00,
2013-05-18 05:43:00,48.9,48.0,30.31,WNW,292,1.4,7.5,96,0.00,,,0.00,Rainwise IP-100,2013-05-18 12:43:00,
2013-05-18 05:48:00,48.9,48.0,30.32,WNW,292,1.6,8.4,96,0.00,,,0.00,Rainwise IP-100,2013-05-18 12:48:00,
2013-05-18 05:53:00,48.9,48.0,30.32,WNW,292,0.0,4.4,96,0.00,,,0.00,Rainwise IP-100,2013-05-18 12:53:00,
2013-05-18 05:58:00,48.8,48.0,30.32,WSW,247,2.8,7.9,97,0.00,,,0.00,Rainwise IP-100,2013-05-18 12:58:00,
2013-05-18 06:03:00,48.9,48.0,30.32,WSW,247,4.2,6.3,97,0.00,,,0.00,Rainwise IP-100,2013-05-18 13:03:00,
2013-05-18 06:08:00,49.0,48.0,30.32,WNW,292,4.2,8.9,97,0.00,,,0.00,Rainwise IP-100,2013-05-18 13:08:00,
2013-05-18 06:13:00,49.0,48.0,30.32,WNW,292,3.5,10.7,97,0.00,,,0.00,Rainwise IP-100,2013-05-18 13:13:00,
2013-05-18 06:18:00,49.1,48.0,30.32,WNW,292,8.2,12.8,97,0.00,,,0.00,Rainwise IP-100,2013-05-18 13:18:00,
2013-05-18 06:23:00,49.1,48.0,30.33,WNW,292,5.4,11.2,97,0.00,,,0.00,Rainwise IP-100,2013-05-18 13:23:00,
2013-05-18 06:28:00,49.1,48.0,30.33,WNW,292,8.9,11.0,97,0.00,,,0.00,Rainwise IP-100,2013-05-18 13:28:00,
2013-05-18 06:33:00,49.2,48.0,30.33,SW,225,3.7,12.4,97,0.00,,,0.00,Rainwise IP-100,2013-05-18 13:33:00,
2013-05-18 06:38:00,49.2,48.0,30.33,WNW,292,7.7,13.3,97,0.00,,,0.00,Rainwise IP-100,2013-05-18 13:38:00,
2013-05-18 06:43:00,49.2,48.0,30.33,WNW,292,7.5,14.0,97,0.00,,,0.00,Rainwise IP-100,2013-05-18 13:43:00,
2013-05-18 06:48:00,49.3,48.0,30.34,WNW,292,7.7,14.9,97,0.00,,,0.00,Rainwise IP-100,2013-05-18 13:48:00,
2013-05-18 06:53:00,49.4,48.0,30.34,West,270,6.5,13.8,97,0.00,,,0.00,Rainwise IP-100,2013-05-18 13:53:00,
2013-05-18 06:58:00,49.5,49.0,30.34,West,270,4.7,14.9,97,0.00,,,0.00,Rainwise IP-100,2013-05-18 13:58:00,
2013-05-18 07:03:00,49.7,49.0,30.34,WNW,292,9.1,17.3,97,0.00,,,0.00,Rainwise IP-100,2013-05-18 14:03:00,
2013-05-18 07:08:00,49.8,49.0,30.34,WSW,247,4.4,14.7,96,0.00,,,0.00,Rainwise IP-100,2013-05-18 14:08:00,
2013-05-18 07:13:00,49.9,49.0,30.34,WSW,247,3.5,14.5,96,0.00,,,0.00,Rainwise IP-100,2013-05-18 14:13:00,
2013-05-18 07:18:00,50.1,49.0,30.34,WSW,247,7.5,12.8,96,0.00,,,0.00,Rainwise IP-100,2013-05-18 14:18:00,
2013-05-18 07:23:00,50.3,49.0,30.35,WNW,292,7.5,12.6,95,0.00,,,0.00,Rainwise IP-100,2013-05-18 14:23:00,
2013-05-18 07:28:00,50.5,49.0,30.35,WNW,292,1.6,14.5,95,0.00,,,0.00,Rainwise IP-100,2013-05-18 14:28:00,
2013-05-18 07:33:00,50.8,50.0,30.35,WSW,247,6.8,10.5,94,0.00,,,0.00,Rainwise IP-100,2013-05-18 14:33:00,
2013-05-18 07:38:00,51.1,50.0,30.34,WNW,292,8.4,12.6,94,0.00,,,0.00,Rainwise IP-100,2013-05-18 14:38:00,
2013-05-18 07:43:00,51.3,49.0,30.35,WNW,292,7.9,12.8,93,0.00,,,0.00,Rainwise IP-100,2013-05-18 14:43:00,
2013-05-18 07:48:00,51.5,50.0,30.35,NW,315,7.2,11.2,92,0.00,,,0.00,Rainwise IP-100,2013-05-18 14:48:00,
2013-05-18 07:53:00,51.7,49.0,30.36,West,270,1.6,10.5,91,0.00,,,0.00,Rainwise IP-100,2013-05-18 14:53:00,
2013-05-18 07:58:00,51.8,49.0,30.36,WNW,292,3.7,10.3,90,0.00,,,0.00,Rainwise IP-100,2013-05-18 14:58:00,
2013-05-18 08:03:00,52.1,49.0,30.36,WSW,247,0.0,5.1,90,0.00,,,0.00,Rainwise IP-100,2013-05-18 15:03:00,
2013-05-18 08:08:00,52.8,50.0,30.36,WNW,292,2.6,7.7,89,0.00,,,0.00,Rainwise IP-100,2013-05-18 15:08:00,
2013-05-18 08:13:00,53.2,49.0,30.36,NW,315,2.3,7.5,88,0.00,,,0.00,Rainwise IP-100,2013-05-18 15:13:00,
2013-05-18 08:18:00,53.4,50.0,30.36,SSW,202,2.6,7.7,87,0.00,,,0.00,Rainwise IP-100,2013-05-18 15:18:00,
2013-05-18 08:23:00,53.5,50.0,30.36,WNW,292,0.0,6.1,87,0.00,,,0.00,Rainwise IP-100,2013-05-18 15:23:00,
2013-05-18 08:28:00,53.6,49.0,30.36,WSW,247,5.4,7.0,86,0.00,,,0.00,Rainwise IP-100,2013-05-18 15:28:00,
2013-05-18 08:31:00,53.6,49.0,30.36,WSW,247,2.6,7.5,86,0.00,,,0.00,Rainwise IP-100,2013-05-18 15:31:00,
2013-05-18 08:36:00,53.7,49.0,30.36,West,270,4.2,8.4,86,0.00,,,0.00,Rainwise IP-100,2013-05-18 15:36:00,
2013-05-18 08:41:00,54.1,50.0,30.37,South,180,4.7,8.2,85,0.00,,,0.00,Rainwise IP-100,2013-05-18 15:41:00,
2013-05-18 08:46:00,54.2,50.0,30.36,South,180,2.3,8.4,85,0.00,,,0.00,Rainwise IP-100,2013-05-18 15:46:00,
2013-05-18 08:51:00,54.4,50.0,30.36,NNE,22,0.0,8.6,84,0.00,,,0.00,Rainwise IP-100,2013-05-18 15:51:00,
2013-05-18 08:56:00,54.7,50.0,30.37,SSW,202,6.3,7.2,84,0.00,,,0.00,Rainwise IP-100,2013-05-18 15:56:00,
2013-05-18 09:01:00,55.0,50.5,30.37,SW,225,4.9,6.3,84,0.00,,,0.00,Rainwise IP-100,2013-05-18 16:01:00,
2013-05-18 09:06:00,55.4,50.5,30.37,WSW,247,1.4,7.2,83,0.00,,,0.00,Rainwise IP-100,2013-05-18 16:06:00,
2013-05-18 09:11:00,55.4,50.0,30.37,WSW,247,1.2,7.9,82,0.00,,,0.00,Rainwise IP-100,2013-05-18 16:11:00,
2013-05-18 09:16:00,55.0,50.0,30.37,SSW,202,6.1,9.8,82,0.00,,,0.00,Rainwise IP-100,2013-05-18 16:16:00,
2013-05-18 09:21:00,55.0,50.0,30.37,South,180,4.0,11.7,82,0.00,,,0.00,Rainwise IP-100,2013-05-18 16:21:00,
2013-05-18 09:26:00,55.2,50.0,30.37,SSE,157,2.1,10.5,82,0.00,,,0.00,Rainwise IP-100,2013-05-18 16:26:00,
2013-05-18 09:31:00,55.6,50.5,30.37,SSW,202,4.2,8.4,82,0.00,,,0.00,Rainwise IP-100,2013-05-18 16:31:00,
2013-05-18 09:36:00,56.0,50.0,30.37,WSW,247,1.2,10.3,81,0.00,,,0.00,Rainwise IP-100,2013-05-18 16:36:00,
2013-05-18 09:41:00,55.6,50.0,30.38,SW,225,7.7,12.4,81,0.00,,,0.00,Rainwise IP-100,2013-05-18 16:41:00,
2013-05-18 09:46:00,55.5,50.5,30.38,WSW,247,4.2,9.6,82,0.00,,,0.00,Rainwise IP-100,2013-05-18 16:46:00,
2013-05-18 09:51:00,55.4,50.0,30.38,SW,225,7.2,12.4,82,0.00,,,0.00,Rainwise IP-100,2013-05-18 16:51:00,
2013-05-18 09:56:00,55.5,50.0,30.38,SW,225,2.3,10.7,81,0.00,,,0.00,Rainwise IP-100,2013-05-18 16:56:00,
2013-05-18 10:01:00,56.3,50.5,30.38,WSW,247,1.6,11.4,80,0.00,,,0.00,Rainwise IP-100,2013-05-18 17:01:00,
2013-05-18 10:06:00,56.9,50.5,30.38,NNW,337,5.1,10.5,79,0.00,,,0.00,Rainwise IP-100,2013-05-18 17:06:00,
2013-05-18 10:11:00,56.9,50.5,30.37,SW,225,7.7,12.1,79,0.00,,,0.00,Rainwise IP-100,2013-05-18 17:11:00,
2013-05-18 10:16:00,56.6,50.0,30.38,WSW,247,2.1,11.4,79,0.00,,,0.00,Rainwise IP-100,2013-05-18 17:16:00,
2013-05-18 10:21:00,56.8,50.5,30.37,SSE,157,2.1,11.7,78,0.00,,,0.00,Rainwise IP-100,2013-05-18 17:21:00,
2013-05-18 10:26:00,57.0,50.0,30.38,SSW,202,3.7,9.6,77,0.00,,,0.00,Rainwise IP-100,2013-05-18 17:26:00,
2013-05-18 10:31:00,57.1,50.0,30.38,WSW,247,4.0,11.2,77,0.00,,,0.00,Rainwise IP-100,2013-05-18 17:31:00,
2013-05-18 10:36:00,57.1,50.0,30.38,WSW,247,4.9,13.3,76,0.00,,,0.00,Rainwise IP-100,2013-05-18 17:36:00,
2013-05-18 10:41:00,57.2,50.0,30.38,WNW,292,3.3,11.0,76,0.00,,,0.00,Rainwise IP-100,2013-05-18 17:41:00,
2013-05-18 10:46:00,57.8,50.5,30.38,WSW,247,5.8,8.6,76,0.00,,,0.00,Rainwise IP-100,2013-05-18 17:46:00,
2013-05-18 10:51:00,58.6,51.0,30.38,SSW,202,1.6,11.9,75,0.00,,,0.00,Rainwise IP-100,2013-05-18 17:51:00,
2013-05-18 10:56:00,59.0,50.5,30.38,WSW,247,9.3,9.3,73,0.00,,,0.00,Rainwise IP-100,2013-05-18 17:56:00,
2013-05-18 11:01:00,59.1,50.5,30.38,SSW,202,4.9,11.7,73,0.00,,,0.00,Rainwise IP-100,2013-05-18 18:01:00,
2013-05-18 11:06:00,59.2,50.0,30.38,WSW,247,4.7,11.4,72,0.00,,,0.00,Rainwise IP-100,2013-05-18 18:06:00,
2013-05-18 11:11:00,59.1,50.0,30.38,WNW,292,0.0,9.1,72,0.00,,,0.00,Rainwise IP-100,2013-05-18 18:11:00,
2013-05-18 11:16:00,59.5,50.5,30.37,WSW,247,2.8,8.4,72,0.00,,,0.00,Rainwise IP-100,2013-05-18 18:16:00,
2013-05-18 11:21:00,60.2,50.5,30.38,SW,225,8.4,11.2,71,0.00,,,0.00,Rainwise IP-100,2013-05-18 18:21:00,
2013-05-18 11:26:00,59.8,50.0,30.37,WNW,292,1.9,10.5,70,0.00,,,0.00,Rainwise IP-100,2013-05-18 18:26:00,
2013-05-18 11:31:00,59.6,50.0,30.38,SE,135,2.8,10.5,70,0.00,,,0.00,Rainwise IP-100,2013-05-18 18:31:00,
2013-05-18 11:36:00,59.8,50.0,30.37,WSW,247,0.0,11.7,70,0.00,,,0.00,Rainwise IP-100,2013-05-18 18:36:00,
2013-05-18 11:41:00,59.3,50.0,30.37,SW,225,6.8,13.3,71,0.00,,,0.00,Rainwise IP-100,2013-05-18 18:41:00,
2013-05-18 11:46:00,59.6,50.5,30.38,WNW,292,0.0,12.1,72,0.00,,,0.00,Rainwise IP-100,2013-05-18 18:46:00,
2013-05-18 11:51:00,60.4,51.0,30.38,SSW,202,4.2,11.2,71,0.00,,,0.00,Rainwise IP-100,2013-05-18 18:51:00,
2013-05-18 11:56:00,60.3,50.5,30.38,SSW,202,8.6,11.2,70,0.00,,,0.00,Rainwise IP-100,2013-05-18 18:56:00,
2013-05-18 12:01:00,59.7,50.0,30.38,SW,225,3.3,12.8,71,0.00,,,0.00,Rainwise IP-100,2013-05-18 19:01:00,
2013-05-18 12:06:00,59.5,50.5,30.38,SW,225,12.4,14.7,72,0.00,,,0.00,Rainwise IP-100,2013-05-18 19:06:00,
2013-05-18 12:11:00,59.6,50.5,30.38,SW,225,6.5,13.8,72,0.00,,,0.00,Rainwise IP-100,2013-05-18 19:11:00,
2013-05-18 12:16:00,59.8,50.5,30.38,SSW,202,7.5,13.3,71,0.00,,,0.00,Rainwise IP-100,2013-05-18 19:16:00,
2013-05-18 12:21:00,59.9,50.5,30.38,SSW,202,1.4,12.1,71,0.00,,,0.00,Rainwise IP-100,2013-05-18 19:21:00,
2013-05-18 12:26:00,60.1,50.0,30.38,WSW,247,2.3,11.9,70,0.00,,,0.00,Rainwise IP-100,2013-05-18 19:26:00,
2013-05-18 12:31:00,60.4,50.5,30.38,NW,315,0.0,10.5,69,0.00,,,0.00,Rainwise IP-100,2013-05-18 19:31:00,
2013-05-18 12:36:00,61.0,50.5,30.38,WSW,247,2.1,11.2,69,0.00,,,0.00,Rainwise IP-100,2013-05-18 19:36:00,
2013-05-18 12:41:00,61.6,50.5,30.37,NNW,337,1.9,9.1,68,0.00,,,0.00,Rainwise IP-100,2013-05-18 19:41:00,
2013-05-18 12:46:00,61.8,51.0,30.37,West,270,3.7,12.4,67,0.00,,,0.00,Rainwise IP-100,2013-05-18 19:46:00,
2013-05-18 12:51:00,61.7,50.0,30.37,WNW,292,1.4,12.4,66,0.00,,,0.00,Rainwise IP-100,2013-05-18 19:51:00,
2013-05-18 12:56:00,61.7,50.0,30.37,WSW,247,4.2,13.5,66,0.00,,,0.00,Rainwise IP-100,2013-05-18 19:56:00,
2013-05-18 13:01:00,61.6,50.0,30.37,NE,45,0.0,14.7,65,0.00,,,0.00,Rainwise IP-100,2013-05-18 20:01:00,
2013-05-18 13:06:00,62.0,50.0,30.37,WNW,292,4.7,18.7,65,0.00,,,0.00,Rainwise IP-100,2013-05-18 20:06:00,
2013-05-18 13:11:00,62.2,50.0,30.36,WNW,292,1.4,15.9,64,0.00,,,0.00,Rainwise IP-100,2013-05-18 20:11:00,
2013-05-18 13:16:00,62.0,50.0,30.36,West,270,9.3,17.0,64,0.00,,,0.00,Rainwise IP-100,2013-05-18 20:16:00,
2013-05-18 13:21:00,62.2,50.0,30.36,WNW,292,9.3,18.2,64,0.00,,,0.00,Rainwise IP-100,2013-05-18 20:21:00,
2013-05-18 13:26:00,62.2,50.0,30.36,West,270,9.6,18.4,64,0.00,,,0.00,Rainwise IP-100,2013-05-18 20:26:00,
2013-05-18 13:31:00,62.2,49.0,30.36,WNW,292,7.9,20.1,63,0.00,,,0.00,Rainwise IP-100,2013-05-18 20:31:00,
2013-05-18 13:36:00,61.8,50.0,30.36,NW,315,4.4,24.2,64,0.00,,,0.00,Rainwise IP-100,2013-05-18 20:36:00,
2013-05-18 13:41:00,61.6,49.0,30.36,NNW,337,1.9,22.4,64,0.00,,,0.00,Rainwise IP-100,2013-05-18 20:41:00,
2013-05-18 13:46:00,62.0,50.0,30.36,WSW,247,6.3,18.4,64,0.00,,,0.00,Rainwise IP-100,2013-05-18 20:46:00,
2013-05-18 13:51:00,62.0,49.0,30.37,SW,225,1.6,21.0,63,0.00,,,0.00,Rainwise IP-100,2013-05-18 20:51:00,
2013-05-18 13:56:00,61.9,49.0,30.36,WNW,292,1.6,15.9,63,0.00,,,0.00,Rainwise IP-100,2013-05-18 20:56:00,
2013-05-18 14:01:00,62.3,50.0,30.36,WNW,292,4.2,16.8,63,0.00,,,0.00,Rainwise IP-100,2013-05-18 21:01:00,
2013-05-18 14:06:00,62.8,50.5,30.36,WNW,292,7.9,14.9,63,0.00,,,0.00,Rainwise IP-100,2013-05-18 21:06:00,
2013-05-18 14:11:00,63.0,50.0,30.36,WSW,247,11.2,16.3,62,0.00,,,0.00,Rainwise IP-100,2013-05-18 21:11:00,
2013-05-18 14:16:00,62.7,49.0,30.36,WNW,292,14.9,18.7,62,0.00,,,0.00,Rainwise IP-100,2013-05-18 21:16:00,
2013-05-18 14:21:00,62.6,49.0,30.36,West,270,9.8,16.1,62,0.00,,,0.00,Rainwise IP-100,2013-05-18 21:21:00,
2013-05-18 14:26:00,62.7,49.0,30.36,WNW,292,4.0,16.3,62,0.00,,,0.00,Rainwise IP-100,2013-05-18 21:26:00,
2013-05-18 14:31:00,62.7,49.0,30.36,NNW,337,9.6,17.7,62,0.00,,,0.00,Rainwise IP-100,2013-05-18 21:31:00,
2013-05-18 14:36:00,62.5,49.0,30.36,NW,315,6.5,18.7,62,0.00,,,0.00,Rainwise IP-100,2013-05-18 21:36:00,
2013-05-18 14:41:00,62.9,50.0,30.36,NW,315,8.9,17.0,62,0.00,,,0.00,Rainwise IP-100,2013-05-18 21:41:00,
2013-05-18 14:46:00,62.9,50.0,30.35,WSW,247,11.7,24.5,62,0.00,,,0.00,Rainwise IP-100,2013-05-18 21:46:00,
2013-05-18 14:51:00,62.8,50.0,30.35,WNW,292,9.3,20.1,62,0.00,,,0.00,Rainwise IP-100,2013-05-18 21:51:00,
2013-05-18 14:56:00,62.7,49.0,30.35,WNW,292,13.8,21.0,62,0.00,,,0.00,Rainwise IP-100,2013-05-18 21:56:00,
2013-05-18 15:01:00,62.7,50.0,30.35,WNW,292,7.9,19.8,63,0.00,,,0.00,Rainwise IP-100,2013-05-18 22:01:00,
2013-05-18 15:06:00,62.6,50.0,30.35,WNW,292,23.1,26.6,63,0.00,,,0.00,Rainwise IP-100,2013-05-18 22:06:00,
2013-05-18 15:11:00,62.1,50.0,30.35,NNW,337,9.1,26.6,64,0.00,,,0.00,Rainwise IP-100,2013-05-18 22:11:00,
2013-05-18 15:16:00,61.8,50.0,30.35,WNW,292,10.5,24.5,64,0.00,,,0.00,Rainwise IP-100,2013-05-18 22:16:00,
2013-05-18 15:21:00,61.9,50.0,30.36,NW,315,9.6,23.1,65,0.00,,,0.00,Rainwise IP-100,2013-05-18 22:21:00,
2013-05-18 15:26:00,62.1,50.0,30.35,WNW,292,16.1,22.9,65,0.00,,,0.00,Rainwise IP-100,2013-05-18 22:26:00,
2013-05-18 15:31:00,62.3,50.5,30.36,WNW,292,8.6,18.7,65,0.00,,,0.00,Rainwise IP-100,2013-05-18 22:31:00,
2013-05-18 15:36:00,62.3,50.5,30.35,WNW,292,11.2,22.2,65,0.00,,,0.00,Rainwise IP-100,2013-05-18 22:36:00,
2013-05-18 15:41:00,62.1,50.0,30.36,WSW,247,15.4,21.7,65,0.00,,,0.00,Rainwise IP-100,2013-05-18 22:41:00,
2013-05-18 15:46:00,61.9,50.0,30.35,West,270,13.8,22.9,65,0.00,,,0.00,Rainwise IP-100,2013-05-18 22:46:00,
2013-05-18 15:51:00,62.1,50.0,30.34,WSW,247,11.7,20.1,65,0.00,,,0.00,Rainwise IP-100,2013-05-18 22:51:00,
2013-05-18 15:56:00,62.1,50.0,30.35,WNW,292,6.3,21.5,65,0.00,,,0.00,Rainwise IP-100,2013-05-18 22:56:00,
2013-05-18 16:01:00,62.4,50.5,30.34,WNW,292,10.5,24.0,65,0.00,,,0.00,Rainwise IP-100,2013-05-18 23:01:00,
2013-05-18 16:06:00,62.7,50.5,30.35,SSW,202,11.0,18.0,65,0.00,,,0.00,Rainwise IP-100,2013-05-18 23:06:00,
2013-05-18 16:11:00,62.4,50.5,30.35,West,270,13.8,20.1,65,0.00,,,0.00,Rainwise IP-100,2013-05-18 23:11:00,
2013-05-18 16:16:00,61.8,50.5,30.35,West,270,9.1,22.9,66,0.00,,,0.00,Rainwise IP-100,2013-05-18 23:16:00,
2013-05-18 16:21:00,61.2,50.5,30.35,West,270,13.3,21.7,68,0.00,,,0.00,Rainwise IP-100,2013-05-18 23:21:00,
2013-05-18 16:26:00,61.1,50.5,30.34,WNW,292,8.4,21.0,68,0.00,,,0.00,Rainwise IP-100,2013-05-18 23:26:00,
2013-05-18 16:31:00,60.9,50.5,30.34,WNW,292,10.7,23.8,69,0.00,,,0.00,Rainwise IP-100,2013-05-18 23:31:00,
2013-05-18 16:36:00,60.8,51.0,30.35,NW,315,6.5,19.6,70,0.00,,,0.00,Rainwise IP-100,2013-05-18 23:36:00,
2013-05-18 16:41:00,60.9,51.0,30.35,West,270,14.0,23.6,70,0.00,,,0.00,Rainwise IP-100,2013-05-18 23:41:00,
2013-05-18 16:46:00,60.7,50.5,30.34,West,270,13.8,20.5,70,0.00,,,0.00,Rainwise IP-100,2013-05-18 23:46:00,
2013-05-18 16:51:00,60.7,51.0,30.34,West,270,10.3,17.5,71,0.00,,,0.00,Rainwise IP-100,2013-05-18 23:51:00,
2013-05-18 16:56:00,60.6,51.0,30.34,West,270,15.6,22.6,71,0.00,,,0.00,Rainwise IP-100,2013-05-18 23:56:00,
2013-05-18 17:01:00,60.3,51.0,30.34,West,270,6.5,26.1,71,0.00,,,0.00,Rainwise IP-100,2013-05-19 00:01:00,
2013-05-18 17:06:00,59.8,50.5,30.34,West,270,15.9,23.6,72,0.00,,,0.00,Rainwise IP-100,2013-05-19 00:06:00,
2013-05-18 17:11:00,59.7,50.5,30.32,WSW,247,14.0,24.9,73,0.00,,,0.00,Rainwise IP-100,2013-05-19 00:11:00,
2013-05-18 17:16:00,59.6,50.5,30.33,WSW,247,14.2,19.8,73,0.00,,,0.00,Rainwise IP-100,2013-05-19 00:16:00,
2013-05-18 17:21:00,59.6,50.5,30.34,West,270,8.6,22.2,73,0.00,,,0.00,Rainwise IP-100,2013-05-19 00:21:00,
2013-05-18 17:26:00,59.6,51.0,30.34,WNW,292,13.5,19.8,74,0.00,,,0.00,Rainwise IP-100,2013-05-19 00:26:00,
2013-05-18 17:31:00,59.4,51.0,30.33,WNW,292,10.7,20.3,75,0.00,,,0.00,Rainwise IP-100,2013-05-19 00:31:00,
2013-05-18 17:36:00,59.4,51.0,30.33,WSW,247,17.3,21.5,75,0.00,,,0.00,Rainwise IP-100,2013-05-19 00:36:00,
2013-05-18 17:41:00,59.4,51.0,30.33,WNW,292,13.8,24.7,75,0.00,,,0.00,Rainwise IP-100,2013-05-19 00:41:00,
2013-05-18 17:46:00,59.3,51.0,30.33,WNW,292,19.1,22.4,75,0.00,,,0.00,Rainwise IP-100,2013-05-19 00:46:00,
2013-05-18 17:51:00,59.5,52.0,30.33,West,270,18.9,20.5,76,0.00,,,0.00,Rainwise IP-100,2013-05-19 00:51:00,
2013-05-18 17:56:00,59.4,52.0,30.33,WNW,292,14.7,24.2,76,0.00,,,0.00,Rainwise IP-100,2013-05-19 00:56:00,
2013-05-18 18:02:00,59.3,52.0,30.34,West,270,19.8,20.3,76,0.00,,,0.00,Rainwise IP-100,2013-05-19 01:02:00,
2013-05-18 18:07:00,59.2,51.0,30.32,WNW,292,7.2,26.6,76,0.00,,,0.00,Rainwise IP-100,2013-05-19 01:07:00,
2013-05-18 18:12:00,59.0,52.0,30.33,West,270,6.5,20.5,77,0.00,,,0.00,Rainwise IP-100,2013-05-19 01:12:00,
2013-05-18 18:17:00,59.0,52.0,30.33,WNW,292,11.2,19.8,77,0.00,,,0.00,Rainwise IP-100,2013-05-19 01:17:00,
2013-05-18 18:22:00,59.0,52.0,30.33,WNW,292,13.3,20.1,77,0.00,,,0.00,Rainwise IP-100,2013-05-19 01:22:00,
2013-05-18 18:27:00,58.9,52.0,30.33,WNW,292,13.5,21.0,77,0.00,,,0.00,Rainwise IP-100,2013-05-19 01:27:00,
2013-05-18 18:32:00,58.6,52.0,30.33,West,270,10.3,22.2,78,0.00,,,0.00,Rainwise IP-100,2013-05-19 01:32:00,
2013-05-18 18:37:00,58.4,51.0,30.33,NW,315,7.9,22.6,78,0.00,,,0.00,Rainwise IP-100,2013-05-19 01:37:00,
2013-05-18 18:42:00,58.3,51.0,30.32,WNW,292,12.8,23.1,78,0.00,,,0.00,Rainwise IP-100,2013-05-19 01:42:00,
2013-05-18 18:47:00,58.0,52.0,30.33,WNW,292,16.6,25.9,79,0.00,,,0.00,Rainwise IP-100,2013-05-19 01:47:00,
2013-05-18 18:52:00,57.7,51.0,30.33,WNW,292,20.5,22.4,79,0.00,,,0.00,Rainwise IP-100,2013-05-19 01:52:00,
2013-05-18 18:57:00,57.5,51.0,30.33,WNW,292,13.5,25.2,80,0.00,,,0.00,Rainwise IP-100,2013-05-19 01:57:00,
2013-05-18 19:02:00,57.2,51.0,30.33,WNW,292,13.5,22.9,80,0.00,,,0.00,Rainwise IP-100,2013-05-19 02:02:00,
2013-05-18 19:07:00,56.9,51.0,30.32,WNW,292,12.8,21.5,81,0.00,,,0.00,Rainwise IP-100,2013-05-19 02:07:00,
2013-05-18 19:12:00,56.6,51.0,30.33,West,270,10.3,23.3,82,0.00,,,0.00,Rainwise IP-100,2013-05-19 02:12:00,
2013-05-18 19:17:00,56.3,51.0,30.33,WSW,247,11.7,21.7,83,0.00,,,0.00,Rainwise IP-100,2013-05-19 02:17:00,
2013-05-18 19:22:00,56.1,50.5,30.33,West,270,11.4,20.1,83,0.00,,,0.00,Rainwise IP-100,2013-05-19 02:22:00,
2013-05-18 19:27:00,56.0,51.0,30.33,West,270,2.8,22.2,84,0.00,,,0.00,Rainwise IP-100,2013-05-19 02:27:00,
2013-05-18 19:32:00,55.8,51.0,30.33,NW,315,5.4,19.1,84,0.00,,,0.00,Rainwise IP-100,2013-05-19 02:32:00,
2013-05-18 19:37:00,55.5,51.0,30.33,WSW,247,9.3,24.5,85,0.00,,,0.00,Rainwise IP-100,2013-05-19 02:37:00,
2013-05-18 19:42:00,55.2,50.5,30.32,WNW,292,10.5,22.4,85,0.00,,,0.00,Rainwise IP-100,2013-05-19 02:42:00,
2013-05-18 19:47:00,54.8,51.0,30.33,West,270,14.7,22.6,86,0.00,,,0.00,Rainwise IP-100,2013-05-19 02:47:00,
2013-05-18 19:52:00,54.7,50.5,30.32,West,270,18.9,21.0,87,0.00,,,0.00,Rainwise IP-100,2013-05-19 02:52:00,
2013-05-18 19:57:00,54.6,50.5,30.33,WNW,292,21.9,21.9,87,0.00,,,0.00,Rainwise IP-100,2013-05-19 02:57:00,
2013-05-18 20:02:00,54.4,50.5,30.33,West,270,14.2,21.9,87,0.00,,,0.00,Rainwise IP-100,2013-05-19 03:02:00,
2013-05-18 20:07:00,54.2,50.5,30.33,West,270,16.3,20.3,88,0.00,,,0.00,Rainwise IP-100,2013-05-19 03:07:00,
2013-05-18 20:12:00,54.1,50.5,30.33,West,270,9.1,20.5,88,0.00,,,0.00,Rainwise IP-100,2013-05-19 03:12:00,
2013-05-18 20:17:00,54.0,50.5,30.32,WNW,292,12.1,24.2,89,0.00,,,0.00,Rainwise IP-100,2013-05-19 03:17:00,
2013-05-18 20:22:00,53.8,50.5,30.33,WNW,292,15.4,18.0,89,0.00,,,0.00,Rainwise IP-100,2013-05-19 03:22:00,
2013-05-18 20:27:00,53.6,50.0,30.33,WSW,247,11.2,23.6,89,0.00,,,0.00,Rainwise IP-100,2013-05-19 03:27:00,
2013-05-18 20:32:00,53.5,50.5,30.33,WNW,292,10.0,19.1,90,0.00,,,0.00,Rainwise IP-100,2013-05-19 03:32:00,
2013-05-18 20:37:00,53.3,50.5,30.33,WNW,292,13.1,18.2,90,0.00,,,0.00,Rainwise IP-100,2013-05-19 03:37:00,
2013-05-18 20:42:00,53.3,50.5,30.33,WSW,247,6.1,15.4,90,0.00,,,0.00,Rainwise IP-100,2013-05-19 03:42:00,
2013-05-18 20:47:00,53.3,50.5,30.33,WNW,292,9.1,15.2,90,0.00,,,0.00,Rainwise IP-100,2013-05-19 03:47:00,
2013-05-18 20:52:00,53.2,50.0,30.33,WNW,292,8.4,16.8,90,0.00,,,0.00,Rainwise IP-100,2013-05-19 03:52:00,
2013-05-18 20:57:00,53.0,50.0,30.33,WNW,292,5.6,19.4,90,0.00,,,0.00,Rainwise IP-100,2013-05-19 03:57:00,
2013-05-18 21:01:00,52.9,50.0,30.33,West,270,14.2,16.6,91,0.00,,,0.00,Rainwise IP-100,2013-05-19 04:01:00,
2013-05-18 21:06:00,52.8,50.0,30.33,WNW,292,7.0,16.1,91,0.00,,,0.00,Rainwise IP-100,2013-05-19 04:06:00,
2013-05-18 21:11:00,52.7,50.0,30.34,West,270,9.1,14.7,91,0.00,,,0.00,Rainwise IP-100,2013-05-19 04:11:00,
2013-05-18 21:16:00,52.7,50.5,30.33,WNW,292,5.4,14.9,92,0.00,,,0.00,Rainwise IP-100,2013-05-19 04:16:00,
2013-05-18 21:21:00,52.9,50.0,30.33,SW,225,2.3,16.1,91,0.00,,,0.00,Rainwise IP-100,2013-05-19 04:21:00,
2013-05-18 21:26:00,53.1,50.0,30.34,West,270,7.7,13.3,91,0.00,,,0.00,Rainwise IP-100,2013-05-19 04:26:00,
2013-05-18 21:31:00,53.2,50.0,30.33,West,270,5.6,14.5,91,0.00,,,0.00,Rainwise IP-100,2013-05-19 04:31:00,
2013-05-18 21:36:00,53.3,50.5,30.34,NW,315,7.2,13.3,90,0.00,,,0.00,Rainwise IP-100,2013-05-19 04:36:00,
2013-05-18 21:41:00,53.5,50.0,30.34,WNW,292,8.2,16.3,89,0.00,,,0.00,Rainwise IP-100,2013-05-19 04:41:00,
2013-05-18 21:46:00,53.7,50.0,30.34,West,270,11.2,14.5,89,0.00,,,0.00,Rainwise IP-100,2013-05-19 04:46:00,
2013-05-18 21:51:00,53.9,50.5,30.34,West,270,6.1,14.9,88,0.00,,,0.00,Rainwise IP-100,2013-05-19 04:51:00,
2013-05-18 21:56:00,54.0,50.5,30.34,West,270,8.2,12.1,87,0.00,,,0.00,Rainwise IP-100,2013-05-19 04:56:00,
2013-05-18 22:01:00,54.3,50.5,30.34,WNW,292,9.8,14.9,86,0.00,,,0.00,Rainwise IP-100,2013-05-19 05:01:00,
2013-05-18 22:06:00,54.8,50.5,30.34,WNW,292,8.6,14.2,84,0.00,,,0.00,Rainwise IP-100,2013-05-19 05:06:00,
2013-05-18 22:11:00,54.9,50.5,30.34,WNW,292,13.5,17.3,83,0.00,,,0.00,Rainwise IP-100,2013-05-19 05:11:00,
2013-05-18 22:16:00,54.6,50.0,30.34,NW,315,5.4,18.7,83,0.00,,,0.00,Rainwise IP-100,2013-05-19 05:16:00,
2013-05-18 22:21:00,54.5,50.0,30.35,WNW,292,5.6,12.4,83,0.00,,,0.00,Rainwise IP-100,2013-05-19 05:21:00,
2013-05-18 22:26:00,54.5,50.0,30.35,WNW,292,7.2,11.0,83,0.00,,,0.00,Rainwise IP-100,2013-05-19 05:26:00,
2013-05-18 22:31:00,54.5,50.0,30.35,NW,315,4.7,9.6,83,0.00,,,0.00,Rainwise IP-100,2013-05-19 05:31:00,
2013-05-18 22:36:00,54.5,49.0,30.35,West,270,5.4,14.7,82,0.00,,,0.00,Rainwise IP-100,2013-05-19 05:36:00,
2013-05-18 22:41:00,54.8,50.0,30.35,WNW,292,6.8,21.0,81,0.00,,,0.00,Rainwise IP-100,2013-05-19 05:41:00,
2013-05-18 22:46:00,55.3,49.0,30.35,WNW,292,6.8,15.2,79,0.00,,,0.00,Rainwise IP-100,2013-05-19 05:46:00,
2013-05-18 22:51:00,55.2,49.0,30.35,WNW,292,9.1,12.1,79,0.00,,,0.00,Rainwise IP-100,2013-05-19 05:51:00,
2013-05-18 22:56:00,55.0,49.0,30.35,WNW,292,6.5,14.0,79,0.00,,,0.00,Rainwise IP-100,2013-05-19 05:56:00,
2013-05-18 23:01:00,55.5,49.0,30.34,WNW,292,9.3,16.6,77,0.00,,,0.00,Rainwise IP-100,2013-05-19 06:01:00,
2013-05-18 23:06:00,55.9,48.0,30.34,West,270,7.9,20.1,75,0.00,,,0.00,Rainwise IP-100,2013-05-19 06:06:00,
2013-05-18 23:11:00,54.9,48.0,30.34,WNW,292,14.9,18.4,77,0.00,,,0.00,Rainwise IP-100,2013-05-19 06:11:00,
2013-05-18 23:16:00,53.7,47.5,30.34,NNW,337,6.1,15.9,81,0.00,,,0.00,Rainwise IP-100,2013-05-19 06:16:00,
2013-05-18 23:21:00,53.3,48.0,30.34,West,270,12.6,18.7,83,0.00,,,0.00,Rainwise IP-100,2013-05-19 06:21:00,
2013-05-18 23:26:00,53.0,47.5,30.34,WNW,292,14.9,14.9,83,0.00,,,0.00,Rainwise IP-100,2013-05-19 06:26:00,
2013-05-18 23:31:00,52.6,48.0,30.34,West,270,8.6,19.4,85,0.00,,,0.00,Rainwise IP-100,2013-05-19 06:31:00,
2013-05-18 23:36:00,52.3,48.0,30.34,WNW,292,4.9,16.3,86,0.00,,,0.00,Rainwise IP-100,2013-05-19 06:36:00,
2013-05-18 23:41:00,52.2,48.0,30.34,WNW,292,6.3,13.5,87,0.00,,,0.00,Rainwise IP-100,2013-05-19 06:41:00,
2013-05-18 23:46:00,52.3,48.0,30.33,WNW,292,9.3,16.8,86,0.00,,,0.00,Rainwise IP-100,2013-05-19 06:46:00,
2013-05-18 23:51:00,52.4,48.0,30.33,West,270,7.0,18.4,86,0.00,,,0.00,Rainwise IP-100,2013-05-19 06:51:00,
2013-05-18 23:56:00,52.2,48.0,30.33,WNW,292,8.6,17.3,87,0.00,,,0.00,Rainwise IP-100,2013-05-19 06:56:00,